CST,Max TemperatureF,Mean TemperatureF,Min TemperatureF,Max Dew PointF,MeanDew PointF,Min DewpointF,Max Humidity, Mean Humidity, Min Humidity, Max Sea Level PressureIn, Mean Sea Level PressureIn, Min Sea Level PressureIn, Max VisibilityMiles, Mean VisibilityMiles, Min VisibilityMiles, Max Wind SpeedMPH, Mean Wind SpeedMPH, Max Gust SpeedMPH,PrecipitationIn, CloudCover, Events, WindDirDegrees
2012-12-1,63,47,31,40,34,28,95,73,34,29.89,29.82,29.74,10,7,0,10,5,,0.00,1,Fog,187
2012-12-2,66,46,25,40,33,23,92,68,33,29.99,29.86,29.67,10,10,10,13,4,17,0.00,0,,160
2012-12-3,59,42,25,41,30,16,95,60,22,30.11,29.82,29.58,10,9,2,26,8,43,0.00,0,,330
2012-12-4,60,40,19,24,18,14,82,51,20,30.27,30.21,30.11,10,10,10,12,3,,0.00,0,,332
2012-12-5,60,44,28,23,21,18,67,43,21,30.24,30.01,29.81,10,10,10,29,10,38,0.00,0,,157
2012-12-6,50,44,37,27,22,16,57,42,26,30.01,29.97,29.91,10,10,10,20,12,28,0.00,6,,351
2012-12-7,42,33,24,32,26,19,92,75,56,30.00,29.92,29.84,10,9,2,12,3,16,0.00,4,Snow,50
2012-12-8,36,32,29,32,27,24,85,79,73,30.00,29.88,29.76,10,8,7,15,6,21,0.00,6,,154
2012-12-9,36,21,6,32,10,1,85,69,58,30.18,30.01,29.81,10,10,5,32,18,44,0.00,4,Snow,315
2012-12-10,33,14,-4,16,3,-9,80,59,30,30.16,29.95,29.82,10,10,5,15,7,20,0.00,1,,272
2012-12-11,43,30,16,17,14,11,84,64,33,29.96,29.91,29.88,10,10,10,14,4,17,0.03,0,Thunderstorm,238
2012-12-12,53,40,26,15,14,12,60,41,20,29.88,29.85,29.80,10,10,10,22,9,26,0.00,0,,185
2012-12-13,46,32,19,25,18,13,81,54,39,30.04,29.98,29.87,10,10,10,15,4,,0.00,0,,346
2012-12-14,50,31,12,41,24,9,91,74,45,30.02,29.79,29.53,10,9,3,16,3,21,0.02,2,Rain,152
2012-12-15,42,35,28,40,34,23,95,88,79,29.72,29.58,29.44,10,5,2,22,9,28,0.15,6,Rain,332
2012-12-16,36,30,25,26,24,22,92,78,65,29.78,29.75,29.72,10,10,5,12,6,,0.00,6,,357
2012-12-17,35,29,23,29,25,20,94,88,77,29.72,29.64,29.48,10,6,0,15,7,22,0.00,5,Fog,177
2012-12-18,50,37,24,33,27,22,94,74,38,29.82,29.64,29.43,10,9,1,23,9,31,0.00,2,,314
2012-12-19,36,29,22,28,24,18,90,78,60,29.94,29.86,29.79,10,7,1,28,8,36,0.00,8,Snow,20
2012-12-20,28,16,5,16,12,2,86,76,57,30.21,30.08,29.92,10,8,3,30,18,39,0.00,2,Snow,329
2012-12-21,29,15,1,20,10,-4,86,77,62,30.24,30.17,30.08,10,10,10,12,3,,0.00,0,,156
2012-12-22,41,28,14,25,18,11,89,74,47,30.07,29.98,29.91,10,10,7,16,7,22,0.00,0,,330
2012-12-23,24,14,5,16,10,2,87,80,70,30.05,29.99,29.92,10,9,3,17,6,23,0.00,0,Snow,334
2012-12-24,17,12,7,8,5,2,79,75,67,30.24,30.10,30.01,10,10,10,16,11,23,0.00,3,,352
2012-12-25,14,8,3,6,1,-2,82,74,66,30.45,30.36,30.24,10,10,10,16,11,21,0.00,4,,347
2012-12-26,20,10,0,9,4,-5,85,75,59,30.32,30.18,30.06,10,10,10,12,2,,0.00,2,,135
2012-12-27,21,16,10,17,14,7,89,84,80,30.06,29.97,29.91,10,5,1,14,8,,0.00,8,Snow,120
2012-12-28,18,10,0,16,11,-4,89,83,77,30.08,30.01,29.96,10,5,1,20,6,24,0.00,7,Snow,328
2012-12-29,32,13,-6,21,7,-11,86,75,61,30.17,30.13,30.08,10,10,5,7,1,,0.00,0,,288
2012-12-30,34,22,10,23,16,7,87,73,59,30.16,30.02,29.89,10,10,7,14,5,20,0.00,0,,253
2012-12-31,22,18,13,18,16,10,91,84,78,30.21,30.15,30.08,10,8,4,14,8,21,0.00,7,,5